Home > Weather > Eureka > Past weeks

Flag for Canada Past Weather in Eureka, Nunavut, Canada — Yesterday and Last 2 Weeks

Now
34 °F

Broken clouds.


Feels Like: 29 °F
Forecast: 32 / 42 °F
Wind: 6 mph from South

Location: Eureka

Current Time: Aug 27, 2016 at 5:16:27 AM

Latest Report: Aug 27, 2016 at 4:00 AM


Visibility: 15 mi

Pressure: 30.10 "Hg

Humidity: 87%

Dew Point: 30 °F

Location of EurekaLocation

Past Weather in Eureka — Graph

°F

Eureka Temperature Yesterday

Maximum temperature yesterday: 45 °F (at 4:00 PM)
Minimum temperature yesterday: 36 °F (at 1:00 AM)
Average temperature yesterday: 40 °F

High & Low Weather Summary for the Past Weeks

 TemperatureHumidityPressure
High48 °F (Aug 16, 2:00 PM)100% (Aug 17, 6:00 AM)30.22 "Hg (Aug 17, 6:00 AM)
Low28 °F (Aug 22, 1:00 AM)35% (Aug 22, 3:00 PM)29.26 "Hg (Aug 19, 7:00 PM)
Average36 °F74%29.77 "Hg
* Reported Aug 12 4:00 AM — Aug 27 4:00 AM, Eureka, Weather by CustomWeather, © 2016

Note: Actual official high and low records may vary slightly from our data, if they occured in-between our weather recording intervals... More about our weather records

Advertising

Eureka Weather History for the Previous 24 Hours

Scroll right to see more
 ConditionsComfort  
Time TempWeatherWind HumidityBarometerVisibility
4:00 AM
Sat, Aug 27
34 °FBroken clouds.6 mph87%30.10 "Hg15 mi
3:00 AM36 °FPartly sunny.2 mph81%30.09 "Hg15 mi
2:00 AM34 °FBroken clouds.No wind87%30.08 "Hg15 mi
1:00 AM36 °FBroken clouds.No wind81%30.08 "Hg15 mi
10:00 PM
Fri, Aug 26
39 °FBroken clouds.2 mph75%30.05 "Hg15 mi
9:00 PM41 °FBroken clouds.2 mph66%30.05 "Hg15 mi
8:00 PM41 °FBroken clouds.5 mph66%30.05 "Hg15 mi
7:00 PM41 °FPartly sunny.6 mph66%30.03 "Hg15 mi
6:00 PM45 °FPartly sunny.3 mph61%30.03 "Hg15 mi
5:00 PM43 °FPartly sunny.6 mph66%30.03 "Hg15 mi
4:00 PM45 °FBroken clouds.3 mph61%30.03 "Hg15 mi
3:00 PM43 °FPartly sunny.3 mph61%30.03 "Hg15 mi
2:00 PM43 °FScattered clouds.5 mph61%30.03 "Hg15 mi
1:00 PM43 °FPartly sunny.No wind66%30.04 "Hg15 mi
12:00 PM41 °FPartly sunny.2 mph66%30.05 "Hg15 mi
11:00 AM41 °FPartly sunny.3 mph70%30.05 "Hg15 mi
10:00 AM39 °FPartly sunny.3 mph70%30.06 "Hg15 mi
9:00 AM41 °FPassing clouds.5 mph66%30.06 "Hg15 mi
8:00 AM41 °FPartly sunny.2 mph66%30.06 "Hg15 mi
7:00 AM37 °FPassing clouds.No wind75%30.07 "Hg15 mi
6:00 AM39 °FPartly sunny.9 mph70%30.07 "Hg15 mi
5:00 AM37 °FScattered clouds.6 mph70%30.08 "Hg15 mi
Weather by CustomWeather, © 2016

See weather overviewHow to use our weather pages